Dewpoint
73 73 73 73 73 73 73 73 73 73 73 73 73 73 73 73 72 72 72 72 72 71 71 71 70 70 70 70 70 70 70 70 70 70 69 69 69 69 69 69 69 69 69 69 68 68 68 66 64 61 61 61 60 60 60 62 63 64 65 66 65 65 65 66 66 65 66 66 65 65 64 63 63 64 64 64 65 65 65 66 66 67 68 68 67 66 66 65 64 64 64 63 63 63 64 64 65 66 67 67 66 65 64
73 73 73 73 73 73 73 73 73 73 73 73 73 73 73 73 72 72 72 72 71 71 71 70 70 70 70 70 70 70 70 70 70 70 69 69 69 69 69 68 68 68 68 68 68 67 68 65 63 61 61 61 61 60 60 61 62 63 63 64 64 64 65 66 66 65 66 65 65 64 63 62 63 63 63 64 64 64 65 65 65 66 66 66 66 66 65 65 64 64 63 63 63 63 63 63 64 65 66 66 66 65 64
73 73 73 73 73 73 73 73 73 73 73 73 73 73 73 72 72 72 71 71 71 71 70 70 70 70 70 70 70 70 70 70 70 70 69 69 69 69 69 68 68 68 68 67 67 67 67 66 63 61 61 61 61 61 61 61 61 61 62 62 63 64 65 66 65 65 65 65 64 63 63 63 63 63 63 63 63 63 64 64 64 65 65 66 65 65 65 65 65 64 64 63 63 62 62 63 63 64 65 65 65 65 64
73 73 73 73 73 74 73 73 73 73 73 73 73 73 73 72 72 72 71 71 70 70 70 70 70 70 70 70 70 70 70 70 70 70 69 69 69 69 69 68 68 68 67 67 67 66 64 63 62 61 61 61 61 61 61 61 61 61 61 62 63 64 66 65 65 64 64 64 63 63 63 63 64 64 63 63 63 63 63 63 63 64 64 65 65 65 65 65 65 65 64 64 63 62 62 62 62 63 63 64 64 64 64
72 72 73 73 73 74 73 73 73 73 73 73 73 73 73 72 72 72 71 70 70 70 70 70 70 70 69 69 69 70 70 70 70 70 70 69 70 69 69 69 68 68 67 67 66 66 63 62 61 61 60 61 61 61 61 61 61 61 60 61 63 64 66 65 64 64 63 63 63 63 63 64 64 64 63 63 62 62 63 63 63 64 64 64 64 64 64 64 65 65 65 65 64 64 63 62 62 62 62 62 63 64 64
72 73 73 73 73 74 73 73 73 73 73 73 73 73 72 72 72 72 71 70 70 70 70 70 69 69 69 69 69 69 69 70 70 70 70 70 70 70 69 69 68 68 67 67 66 65 64 61 60 60 60 60 60 60 61 61 61 60 60 61 62 65 66 65 64 63 63 63 63 63 63 64 64 65 64 63 63 63 63 63 63 64 64 64 63 63 63 63 64 64 65 65 65 65 65 64 63 62 62 62 62 62 63
72 73 73 73 73 73 73 73 73 73 73 73 73 73 72 72 72 72 71 70 70 69 69 69 69 69 69 69 69 69 69 69 69 69 70 70 70 70 69 69 68 67 67 66 66 65 65 62 61 61 61 60 60 60 60 61 61 60 59 60 63 66 66 65 64 63 64 63 63 63 63 64 64 65 64 64 63 63 64 64 64 64 64 64 64 63 63 63 63 63 64 65 66 66 66 66 66 65 64 62 61 61 61
73 73 73 73 73 73 73 73 73 73 73 73 73 73 72 72 72 72 71 71 70 70 69 69 69 69 69 69 69 69 69 69 69 69 70 70 70 70 69 68 67 67 66 66 66 65 65 63 61 61 61 60 60 60 60 61 60 59 59 60 63 66 66 66 64 63 63 63 64 64 64 65 64 64 64 64 63 63 64 65 65 66 66 65 64 64 63 62 62 62 63 64 65 66 66 67 66 66 66 64 63 62 61
73 73 73 73 73 73 73 73 73 73 73 73 73 73 72 72 72 72 72 71 70 70 69 69 69 69 69 69 69 69 69 69 69 69 70 70 70 69 69 68 67 67 66 66 65 65 65 64 62 61 61 60 60 59 60 59 59 59 58 60 63 66 67 66 65 64 63 63 64 65 66 66 65 64 64 64 64 64 64 65 66 66 67 66 65 64 63 63 62 62 62 63 63 65 66 66 67 66 66 66 65 63 62
73 73 73 73 73 73 73 73 73 72 72 72 72 73 73 72 72 72 72 71 71 70 70 69 69 69 69 68 68 68 68 68 69 69 70 70 70 69 69 68 67 67 66 66 65 65 64 64 63 61 61 60 59 60 60 59 59 59 58 61 65 67 68 67 66 65 63 63 64 66 67 66 66 65 64 63 64 64 64 65 66 66 66 66 65 64 64 64 63 62 62 62 62 63 65 66 66 66 66 65 65 64 63
73 73 73 73 73 73 73 73 72 72 72 72 72 72 73 73 72 72 72 71 71 70 70 70 69 69 69 68 68 68 68 68 68 69 69 70 70 69 69 68 67 67 66 66 65 65 65 64 62 61 61 60 60 60 60 60 59 59 59 62 66 68 68 68 67 66 63 63 64 66 67 66 66 65 64 63 64 64 64 65 66 66 66 66 65 64 64 64 64 63 63 63 63 63 63 64 65 65 65 64 64 64 64
72 73 73 73 73 73 73 73 72 72 71 71 72 72 73 72 72 72 72 72 71 71 70 70 70 70 69 69 69 68 68 68 68 69 70 70 70 69 69 68 68 67 66 66 66 65 64 62 61 61 60 59 59 60 60 60 60 60 59 64 66 67 68 68 68 66 64 63 64 66 67 67 66 65 64 64 64 64 64 65 65 66 65 65 65 64 64 64 64 64 64 63 63 63 63 63 63 63 63 63 63 63 63
72 73 73 72 72 73 73 73 72 72 72 72 72 72 72 72 72 72 72 72 71 71 71 70 70 70 70 70 69 69 68 69 69 69 70 70 70 69 69 68 68 67 66 66 65 64 61 60 60 59 59 59 59 60 61 61 61 61 61 66 67 67 67 67 67 66 65 63 64 66 68 67 66 66 64 64 63 64 64 65 65 66 66 65 65 64 64 64 64 64 64 64 63 63 63 63 63 62 62 62 62 62 62
72 72 72 71 72 72 72 72 72 72 72 72 72 72 72 72 72 72 72 72 72 71 71 71 70 70 70 70 70 70 69 69 70 70 70 70 70 69 69 68 68 67 66 66 63 61 60 59 58 58 58 58 59 60 62 61 61 62 66 67 67 67 67 67 67 66 65 64 64 66 68 67 67 66 65 64 63 63 64 64 65 65 66 65 65 65 64 64 64 64 64 64 63 63 63 63 62 62 62 62 62 62 62
71 71 70 71 71 72 72 72 72 72 72 73 73 73 72 72 72 72 72 72 72 71 71 71 71 70 70 70 70 70 70 70 70 70 70 70 70 69 69 68 68 67 66 64 61 60 59 58 58 58 57 58 59 60 61 61 62 64 67 67 67 67 67 67 67 66 65 64 64 66 67 67 67 66 65 64 63 63 64 64 65 65 65 65 65 64 64 64 64 64 64 64 63 63 63 63 62 62 62 62 62 62 62
68 68 69 70 71 71 72 72 72 72 72 73 73 73 72 72 72 72 72 72 72 71 71 71 71 71 71 70 70 70 70 70 70 70 70 70 70 69 69 68 67 66 65 62 60 58 57 57 57 57 57 57 58 60 61 61 62 64 67 67 67 67 67 67 67 66 65 64 64 65 66 67 67 66 66 64 63 63 64 64 65 65 65 65 64 64 64 64 64 64 64 64 63 63 63 62 62 62 62 62 62 62 62
66 66 69 70 71 71 71 71 72 72 72 72 73 73 72 72 72 72 72 72 72 71 71 71 71 71 71 70 70 69 67 68 69 69 69 70 69 69 68 68 67 66 63 61 59 57 57 57 57 57 57 57 58 59 61 61 63 65 66 67 67 67 68 67 67 66 66 65 64 64 65 67 67 66 66 65 64 64 64 64 65 65 65 65 65 64 64 64 64 64 64 64 63 63 63 62 62 62 62 62 62 62 62
66 68 70 70 70 70 71 71 71 71 72 72 72 72 72 72 72 72 72 72 72 71 71 71 71 71 71 70 69 68 66 66 66 67 68 69 69 68 68 67 66 65 62 60 59 57 56 56 56 56 57 57 57 58 60 62 64 66 67 67 67 68 68 68 67 67 66 65 64 64 65 66 67 66 66 65 65 64 64 64 65 66 66 66 65 65 64 64 64 64 64 64 63 63 63 62 62 62 62 62 62 62 62
66 68 69 69 70 70 70 70 70 70 71 71 71 72 72 72 72 72 72 72 72 71 71 71 71 71 71 70 69 66 65 65 65 65 66 67 67 67 66 66 66 64 62 61 59 57 56 56 56 56 56 56 57 58 60 62 66 67 67 67 67 68 68 68 68 67 67 66 65 65 65 66 66 66 66 65 65 64 64 64 65 66 66 66 66 65 65 65 64 64 64 64 63 63 62 62 62 62 62 62 62 62 62
67 68 69 69 69 70 70 70 70 70 70 70 70 71 71 71 71 71 71 71 71 71 71 71 71 71 71 70 68 66 66 65 65 65 65 65 66 66 66 66 65 63 63 61 60 58 57 56 56 56 55 56 56 57 59 62 66 67 67 67 67 68 68 68 68 68 67 67 66 66 65 66 66 66 66 65 65 64 64 65 65 66 67 66 66 66 66 65 65 64 64 64 63 63 62 62 63 63 63 63 63 63 63
69 70 69 69 69 69 69 70 70 70 70 70 70 70 70 70 70 70 70 70 71 71 71 71 71 70 70 68 67 66 66 66 65 65 65 65 65 66 66 65 64 64 64 63 62 61 59 57 57 56 55 55 56 57 58 62 65 67 67 67 67 68 68 68 68 68 67 67 67 66 66 66 66 66 66 66 65 65 65 64 65 66 67 67 66 66 66 66 66 65 64 64 63 63 62 63 63 64 64 64 64 64 63
69 69 69 69 69 69 69 69 70 70 71 70 70 71 70 69 69 69 69 69 69 70 70 70 69 68 68 67 67 66 66 66 65 65 65 65 65 65 65 64 65 65 65 64 63 62 61 59 58 57 56 55 56 56 57 62 65 66 66 67 67 68 68 68 68 68 68 67 67 67 66 66 66 66 66 66 65 65 65 65 65 66 67 67 67 67 66 66 66 65 65 64 63 63 62 63 63 64 64 64 64 64 64
68 68 67 68 69 69 69 69 69 70 70 70 70 71 71 70 68 68 68 68 67 67 68 68 67 67 66 66 66 66 66 66 65 65 65 65 65 65 65 65 65 65 65 64 63 62 61 61 60 58 57 56 56 56 57 62 64 65 66 66 67 67 68 68 68 68 68 68 68 67 67 67 66 66 66 66 65 65 65 65 66 66 67 67 67 67 67 67 66 66 65 64 63 63 62 63 63 64 64 64 64 64 64
70 68 67 68 69 69 69 69 68 69 70 70 70 71 71 70 70 69 68 67 67 66 67 67 67 67 66 66 66 66 66 66 66 65 65 65 65 65 65 65 66 66 65 64 63 62 62 61 61 60 58 57 56 57 57 61 63 64 65 66 66 67 68 68 68 68 68 68 68 68 68 68 67 67 66 66 66 66 66 66 66 66 66 67 67 67 67 67 66 66 65 65 64 63 62 63 63 64 64 64 65 65 65
70 70 70 68 68 68 68 67 67 68 69 70 70 71 70 70 70 70 70 69 68 68 68 68 68 68 67 67 66 66 66 66 66 65 65 65 65 65 65 65 66 66 65 65 64 63 62 61 61 60 59 57 57 57 57 60 62 63 63 65 66 66 67 68 68 68 68 68 68 68 68 68 68 67 67 67 67 66 66 66 66 66 66 66 66 67 67 67 67 66 66 65 64 63 63 63 63 64 64 65 65 65 65
69 70 70 70 69 68 68 66 66 67 67 68 69 70 69 70 70 70 70 70 69 70 70 70 70 70 68 67 67 66 66 66 66 65 65 65 65 65 65 65 66 66 66 65 64 64 63 62 61 60 59 58 57 57 57 61 62 63 63 64 64 65 66 67 68 68 68 68 68 68 68 68 68 68 68 68 68 67 67 66 66 66 66 66 66 66 66 67 66 66 66 65 65 64 63 63 63 64 64 65 65 65 65
68 68 69 70 70 70 68 67 67 67 67 67 68 68 68 68 68 69 69 69 69 70 70 70 70 70 70 69 67 67 66 66 66 66 65 65 65 65 65 65 66 66 65 65 65 64 63 62 61 61 60 58 58 57 57 61 62 63 63 63 64 64 65 66 66 67 68 68 68 68 68 68 68 68 68 68 69 68 68 67 67 66 66 66 66 66 66 66 66 66 66 66 65 64 64 63 63 64 64 65 65 65 65
67 67 67 68 70 70 70 69 68 67 68 68 68 67 66 66 66 67 67 68 68 69 70 71 70 70 71 70 69 68 67 66 66 66 66 65 65 65 65 65 65 65 65 65 65 64 64 63 62 61 61 59 59 58 58 60 62 63 63 63 63 64 64 65 66 66 67 68 68 68 68 68 68 68 68 68 69 69 69 68 68 67 67 67 66 66 66 66 66 66 66 66 66 65 64 64 64 64 64 64 65 65 65
66 66 66 67 68 69 70 70 70 68 67 67 67 67 67 66 66 66 66 66 67 67 69 70 70 70 71 71 71 70 67 67 66 66 66 66 66 66 66 65 65 65 65 65 65 64 64 63 63 62 61 61 60 59 58 59 61 63 63 63 63 63 63 64 64 65 66 67 67 68 68 68 68 68 68 68 68 69 69 69 69 68 68 68 68 67 67 67 66 66 66 66 66 66 65 65 64 64 64 64 65 65 65
65 65 66 66 67 68 68 69 70 70 68 69 68 68 67 67 66 66 66 66 66 66 67 68 69 70 70 70 70 70 69 68 67 66 66 66 66 66 66 65 65 65 65 65 65 64 64 64 63 63 62 61 61 60 59 59 61 62 63 63 63 63 63 63 64 64 65 66 66 67 68 68 68 68 67 67 67 67 68 69 69 69 69 69 68 68 68 67 67 66 66 66 66 66 66 66 65 64 64 64 65 65 65
64 64 65 66 66 67 67 68 69 70 70 70 69 68 68 67 67 66 66 66 66 66 66 67 67 68 69 69 70 70 70 70 69 68 66 66 66 66 66 66 65 65 65 65 65 64 64 64 64 63 63 62 62 61 61 60 61 61 63 63 63 63 63 63 63 64 64 65 66 66 67 67 68 68 68 67 67 67 67 68 69 69 69 69 69 69 69 68 68 67 67 66 66 66 66 66 66 65 65 65 65 65 65
64 64 64 65 66 66 67 67 68 69 70 70 70 69 68 67 66 66 66 66 66 66 66 66 67 67 68 69 69 70 70 70 70 69 68 67 67 67 67 67 66 65 65 65 65 64 64 64 64 64 63 63 62 62 61 61 61 61 62 62 62 63 63 63 63 64 64 64 65 66 66 67 67 68 68 68 67 67 66 67 68 69 70 70 70 69 69 69 68 68 67 67 67 67 66 66 66 66 65 65 65 65 65
64 64 64 64 65 66 66 66 67 67 68 69 70 70 70 70 69 68 66 66 66 66 65 66 66 66 66 67 68 69 70 70 70 69 69 69 68 68 68 68 67 66 65 65 64 64 64 64 64 64 64 63 63 62 62 61 61 61 61 61 62 62 62 63 63 63 64 64 64 65 66 66 67 67 68 68 68 67 67 67 67 68 69 70 70 70 70 69 69 68 68 68 67 67 67 67 66 66 66 65 65 65 65
63 64 64 64 65 65 66 66 67 67 68 68 69 69 70 70 70 70 68 67 66 66 65 65 65 65 65 66 66 67 67 68 69 69 68 68 69 69 69 67 66 65 65 64 64 64 64 64 64 64 64 64 63 63 63 62 62 62 62 61 61 61 62 62 63 63 63 63 64 64 65 66 66 67 67 68 68 68 68 68 67 67 67 68 69 70 70 70 69 69 69 68 68 68 67 67 67 66 66 66 65 65 65
63 63 64 64 64 65 65 66 66 67 68 68 68 68 68 69 69 70 70 69 68 68 67 67 66 66 66 66 66 66 66 66 66 66 66 66 66 66 66 65 65 64 64 64 64 64 64 64 64 64 64 64 64 64 63 63 63 63 62 61 61 61 61 62 62 62 62 63 63 64 64 65 65 66 66 67 68 68 68 68 68 67 66 66 67 68 69 70 70 69 69 69 69 68 68 67 67 67 66 66 66 66 66
62 62 63 63 63 64 65 66 66 66 66 67 68 68 68 68 68 68 68 68 67 67 67 68 68 68 68 68 67 66 66 66 66 66 65 65 64 64 64 64 64 64 64 64 65 65 65 65 64 64 64 64 64 64 64 64 64 63 63 62 61 61 61 61 61 62 62 62 63 63 63 64 64 65 66 66 67 67 68 68 68 68 67 67 67 67 68 69 69 70 70 69 69 69 68 68 68 68 67 66 66 66 66
61 61 62 63 63 63 64 65 65 65 66 66 67 67 68 68 68 67 66 67 66 66 67 67 67 67 67 67 67 68 69 69 69 68 68 67 66 66 65 65 65 65 65 65 65 65 65 65 65 64 64 64 64 64 64 64 64 63 63 62 62 61 61 61 61 61 61 61 62 62 63 63 64 64 65 66 66 67 67 68 68 68 68 67 67 67 67 68 68 69 69 70 70 70 69 69 69 69 68 68 67 66 66
60 60 60 62 63 64 64 64 64 65 65 66 66 67 67 67 66 66 66 66 66 65 66 66 66 66 66 66 66 66 67 67 68 68 69 69 69 69 68 67 66 66 66 65 66 66 65 65 65 65 64 64 64 64 64 64 64 64 63 63 62 61 61 60 60 59 60 60 61 61 62 63 63 63 64 65 65 66 66 67 67 68 68 68 68 68 67 67 67 68 68 69 69 69 70 70 70 69 69 69 68 67 66
60 60 59 60 62 63 63 64 64 64 64 65 66 66 67 66 66 66 66 66 66 66 66 66 66 66 66 66 66 66 66 66 66 67 67 67 68 68 69 69 68 67 66 66 66 66 65 65 65 65 65 64 64 64 64 64 64 64 64 63 62 61 60 60 59 59 60 59 59 60 62 62 62 63 63 64 64 65 66 66 67 67 68 68 68 68 68 67 67 67 67 68 68 68 69 69 70 70 70 69 69 68 67
59 59 58 59 61 61 62 63 63 62 63 64 65 66 66 66 66 66 65 66 66 66 66 65 65 65 65 66 66 66 66 66 66 66 66 66 66 67 68 68 68 67 67 66 66 66 66 65 65 64 64 64 64 64 64 64 64 64 64 63 63 62 61 60 59 59 59 59 59 59 61 61 62 62 62 63 63 64 65 66 66 67 67 68 68 68 68 68 67 67 67 67 67 67 67 68 68 69 69 69 69 69 68
59 58 57 58 59 60 61 62 62 61 62 63 64 65 66 66 66 66 66 66 66 65 66 66 65 64 64 65 65 66 66 66 66 65 65 64 64 65 66 67 67 67 67 66 66 66 66 65 65 64 64 64 64 64 64 64 64 64 64 64 63 63 61 61 60 59 59 59 59 59 59 61 62 62 62 62 63 63 64 65 65 66 66 67 67 67 68 67 67 67 67 67 67 67 67 67 67 68 68 69 69 70 69
59 58 57 58 58 60 61 61 61 61 61 61 62 63 64 65 65 66 66 66 66 65 65 66 65 65 64 64 65 65 65 65 65 65 64 64 64 64 64 65 66 66 66 66 66 66 65 65 64 64 64 64 64 64 64 64 64 64 64 64 64 63 62 61 60 60 59 59 58 59 59 61 61 61 62 62 62 63 63 64 64 65 66 66 66 67 67 67 67 67 67 67 67 67 67 67 67 67 68 69 69 70 70
59 58 58 57 58 58 60 61 61 61 61 61 61 61 61 63 64 65 65 66 66 65 65 66 66 65 65 64 64 64 65 64 64 64 63 63 63 64 64 64 64 64 65 65 65 64 64 64 64 64 64 64 64 64 64 64 63 63 63 63 63 63 63 62 61 61 60 59 59 59 59 60 61 61 61 62 62 62 62 63 63 64 64 65 66 66 66 66 66 67 67 67 67 67 67 67 67 68 68 69 70 70 70
59 58 58 58 58 58 59 60 60 60 59 59 60 60 61 61 62 63 64 64 64 64 64 65 65 65 65 64 64 64 64 64 63 63 63 62 62 62 62 62 62 63 63 64 64 63 63 63 63 63 64 64 64 63 63 63 63 63 63 63 63 63 63 62 62 61 61 61 60 59 59 60 60 61 61 61 61 62 62 62 62 63 63 64 64 65 65 66 66 66 66 67 67 67 67 67 67 68 68 69 70 70 70
60 59 58 57 58 59 59 59 59 59 58 58 58 59 60 60 61 61 62 62 62 62 62 63 64 65 64 64 64 64 64 63 63 62 62 61 61 61 61 61 62 62 62 63 63 63 63 63 63 63 63 63 63 63 63 63 63 63 63 63 63 63 63 63 62 62 61 61 61 60 60 60 59 60 60 60 61 61 61 61 61 62 63 63 64 64 65 65 65 66 66 66 67 67 67 67 67 68 68 69 70 70 70
58 58 57 57 57 58 59 59 59 59 57 57 57 58 59 59 59 60 61 61 61 61 61 62 62 63 64 64 64 63 63 63 63 62 61 61 61 61 61 61 61 61 61 62 62 62 62 62 62 62 62 62 63 63 63 63 63 63 63 63 63 63 62 63 63 62 62 61 61 61 61 60 59 59 59 59 59 59 60 61 61 62 62 63 64 64 64 65 65 66 66 66 66 67 67 67 67 67 68 68 69 69 70
57 57 56 57 57 57 57 58 58 59 58 57 57 57 58 58 58 58 60 61 61 61 61 62 62 62 62 64 64 63 63 63 63 62 61 61 61 61 61 61 61 61 61 61 61 61 61 61 61 61 61 62 62 62 62 62 62 62 62 62 62 62 62 63 63 62 62 61 61 61 61 60 59 59 58 58 58 58 59 60 61 61 62 63 64 64 65 65 65 65 66 66 66 66 66 67 67 67 67 68 68 68 69
57 57 56 56 57 57 56 56 57 57 58 57 56 56 57 57 57 57 58 58 59 59 60 61 61 61 61 62 62 62 63 63 63 63 62 61 61 61 61 61 61 61 61 61 61 61 61 61 61 61 61 61 61 61 62 61 61 61 61 61 62 62 62 62 62 62 62 61 61 61 61 60 60 59 58 58 58 58 58 59 60 61 62 62 63 64 64 64 64 65 66 66 66 66 66 66 67 67 67 67 68 68 67
56 56 56 56 57 57 56 55 56 57 57 57 56 56 56 57 57 57 58 58 58 58 59 59 60 60 60 60 60 61 62 63 63 63 61 60 60 59 60 61 61 61 61 61 61 61 60 60 60 60 60 60 61 61 61 61 61 61 61 61 61 61 61 61 61 62 62 62 62 61 61 61 60 59 58 58 58 58 58 58 59 60 61 62 62 63 64 63 64 64 65 65 66 66 66 66 66 66 67 67 67 67 67
55 55 55 56 57 57 56 56 55 55 56 56 55 55 56 57 57 57 58 58 59 60 59 58 59 59 59 57 57 58 60 62 62 62 61 59 57 57 57 58 59 60 60 60 60 60 59 59 58 58 58 59 60 61 61 61 61 61 61 61 61 61 61 61 61 61 61 62 62 62 61 61 60 59 58 58 58 58 58 58 59 60 60 61 61 61 62 63 63 63 64 65 65 65 65 66 66 66 66 67 67 67 67
55 55 55 55 56 56 55 55 55 55 55 55 56 56 57 57 57 57 57 57 58 58 57 56 56 57 58 57 56 57 58 60 61 60 57 57 57 56 55 56 56 57 57 59 60 61 61 60 59 59 59 59 60 61 61 61 61 61 61 61 61 61 61 61 61 61 61 61 61 61 61 61 60 59 58 58 57 57 57 58 58 59 59 59 60 60 60 61 61 62 63 64 64 65 65 65 65 66 66 66 66 67 67
55 55 54 54 54 55 55 55 55 54 55 54 54 54 55 55 55 55 56 57 57 57 56 55 54 55 57 56 57 58 61 59 59 59 57 56 56 56 57 56 54 53 53 54 57 60 62 61 61 61 60 60 60 61 61 61 61 61 61 61 61 61 61 61 60 60 60 60 60 60 60 60 60 59 58 58 57 57 57 58 59 59 58 59 59 59 58 59 59 60 61 63 64 64 64 64 65 65 65 66 66 66 66
54 54 54 54 54 54 55 55 55 55 55 53 52 52 52 53 54 55 56 56 56 57 56 57 56 55 54 55 56 58 60 60 60 59 58 57 56 55 56 54 52 50 50 51 52 53 56 57 59 60 60 60 60 60 60 60 60 60 61 61 61 61 61 61 61 60 60 59 59 59 59 59 59 59 59 59 58 58 58 59 60 61 61 61 60 60 60 58 56 55 56 58 61 63 63 63 64 64 64 65 65 66 66
52 52 53 53 54 54 54 54 55 55 55 54 53 52 52 53 54 54 54 54 54 55 56 56 57 56 53 53 53 54 55 57 59 60 59 58 56 54 52 51 50 49 50 50 49 48 47 49 52 55 58 60 60 60 59 59 60 60 61 61 61 61 61 61 61 60 60 59 59 59 59 59 59 59 59 59 59 60 60 60 60 61 62 62 62 62 62 61 58 56 56 56 57 58 61 62 63 63 64 64 65 65 66
51 52 52 52 53 54 54 54 55 55 55 55 54 53 52 52 53 52 52 53 53 53 54 54 54 54 53 52 52 51 52 55 56 57 59 59 58 56 52 50 49 48 49 48 46 44 43 44 46 48 51 57 60 60 59 59 60 60 61 61 61 61 61 61 61 60 60 60 60 60 60 60 60 60 60 61 61 61 60 60 60 60 60 61 62 62 62 61 60 60 60 59 58 57 57 61 62 63 64 64 65 65 66
50 51 51 52 52 53 54 54 55 55 55 54 54 53 52 52 52 53 55 54 53 53 55 54 54 54 53 52 52 51 51 52 54 56 58 58 59 58 57 54 51 48 46 44 43 42 43 46 48 48 47 54 57 58 58 59 59 60 61 61 61 61 61 61 61 61 61 61 61 60 60 60 60 59 59 61 60 60 59 59 59 59 59 59 60 61 61 61 62 62 62 62 61 59 58 61 62 63 64 64 65 65 66
49 50 50 51 51 52 52 53 53 54 54 54 55 55 55 54 54 54 55 54 54 54 55 55 54 54 54 53 53 52 52 52 54 56 57 57 58 59 60 58 55 52 48 46 44 44 46 49 49 47 45 50 54 57 57 57 57 59 60 60 60 60 61 61 61 61 61 61 60 60 60 60 59 59 58 59 58 58 59 59 59 59 60 60 60 60 61 61 61 61 61 61 61 61 59 61 62 64 64 65 65 65 66
49 49 49 50 50 51 51 52 52 52 52 52 53 54 54 54 54 54 54 55 55 56 57 58 57 55 54 54 54 53 52 52 52 54 57 60 60 60 60 60 59 58 57 56 54 52 52 51 49 47 45 47 49 51 53 53 54 55 56 57 58 59 59 59 59 59 59 59 59 59 59 59 59 58 58 58 58 58 59 59 59 60 60 60 60 60 60 60 60 60 60 60 60 60 59 61 62 63 64 64 65 65 65
49 48 48 48 49 49 50 50 51 51 51 51 51 51 51 52 52 52 53 54 55 56 56 57 57 57 58 58 57 55 53 52 52 54 58 59 59 59 58 59 60 60 59 59 58 57 56 52 50 48 48 46 47 48 50 50 50 51 52 53 55 56 57 57 57 57 57 57 57 58 58 58 58 59 58 58 59 59 59 59 59 59 60 60 60 60 59 59 58 58 58 58 58 59 60 61 62 63 63 64 64 64 64
48 48 48 48 48 48 49 49 50 50 50 50 50 50 50 51 51 52 52 54 54 55 56 57 57 57 58 59 59 58 56 54 53 54 56 55 55 55 56 55 55 55 56 56 56 56 56 54 52 51 50 48 47 47 48 49 50 50 50 51 52 53 55 55 56 56 56 57 57 57 58 58 58 58 58 58 59 59 59 59 59 59 59 59 59 59 59 59 59 59 59 58 58 58 60 61 61 62 63 63 64 64 64
47 47 47 47 47 47 48 48 48 48 49 49 49 49 50 50 51 52 52 52 52 53 55 55 55 55 56 57 57 58 58 57 56 55 55 53 52 53 55 55 55 54 55 54 54 55 55 55 55 54 53 52 50 48 47 48 48 49 50 51 52 54 56 57 57 57 57 57 57 58 58 58 58 58 58 58 58 58 58 58 59 59 59 59 59 58 58 59 59 60 60 59 59 58 59 60 61 62 63 63 63 64 64